Location: Shannon
(40.5500°S, 175.4167°E)
Time: 21:52:48
(UTC+00:00)

IDEFIX/ARIANE 42P - Pass Details

Date: 17 November 2025
Orbit: 779 x 798 km, 98.6° (Epoch: 06 December)

Event Time Altitude Azimuth Distance (km) Brightness Sun altitude
Exits shadow 12:33:54 44° 108° (ESE) 1,088 3.3 -29.9°
Maximum altitude 12:33:58 44° 110° (ESE) 1,088 3.3 -29.9°
Drops below altitude 10° 12:38:56 10° 180° (S) 2,384 5.9 -29.8°
Sets 12:41:22 0° 186° (S) 3,324 6.9 -29.7°
